METEOR-M 2

Last updated on Sat Aug 15 2026 00:02:40 GMT+0000 (Coordinated Universal Time)

1 40069U 14037A 26226.63940929 -.00000121 00000+0 -35812-4 0 9992 2 40069 98.5167 200.3238 0004792 218.6812 141.4023 14.21475189627625
UTC large
Height (km)
Speed (km/s)
/
Latitude / Longitude
Inclination (degrees)
Orbital Period (minutes)
Azimuth
Elevation
Range (km)
Doppler Factor

Next 0 passes for location: London (51.5072 / 0.1276)

No passes found over London.
METEOR-M 2